User: anonymous   Login
Location: Saddleback Butte
(34.6776°N, 117.8050°W)
Time: 09:35:19
(UTC-07:00)
Language:

Cosmos 1862 Rocket - Orbit

View from above orbital plane
View from above orbital plane
View from above satellite
View from above satellite

Ground track
Ground track

The orbit data is extracted from the following two-line orbital elements,

1 18153U 87055B   18140.59215524 +.00000065 +00000-0 +50226-5 0  9991
2 18153 082.4982 147.7102 0022891 054.5939 305.7409 14.83223089647298
Epoch (UTC): 20 May 2018 14:12:42
Eccentricity: 0.0022891
inclination: 82.4982°
perigee height: 603 km
apogee height: 635 km
right ascension of ascending node: 147.7102°
argument of perigee: 54.5939°
revolutions per day: 14.83223089
mean anomaly at epoch: 305.7409°
orbit number at epoch: 64729

The dashed part of the orbit path shows where the satellite is in the earth's shadow,  

DLR